Group_ship,Cruise,JD_GMT,Date_DDMMYYYY,TIME_HH:MM:SS,Lat_dec_degree,Long_dec_degree,xCO2eq_ppm,xCO2a_ppm,Pres_Equi_hPa,Pres_sealevel_hPa,EqTemp_C,SST(TSG)_C,Sal(TSG)_Permil,Water_flow_l/min,Gasflow_IR_ml/min,Temp_IR_C,Pres_IR_hPa,Ship_heading_true_degree,Ship_speed_knot,Wind_dir_rel_degree,Wind_speed_rel_m/s,fCO2W@SST_uatm,Qcflag_water,fCO2a_uatm,Qcflag_air,dfCO2_uatm,Fluoro_ug/l,Wind_speed_true_m/s,Wind_dir_true_degree,Air_temp_C,Oxygen
AOML_Explorer,Ex0708E,50.031,19022007,0:44:37,25.973,-79.675,364.87,-9.00,1019.70,1015.10,25.03,25.26,36.306,2.336,106.669,30.664,1019.700,63.100,23.000,286.000,19.044,358.28,2,-9.00,9,-9.00,0.15,19.19,314.48,15.77,256.76
AOML_Explorer,Ex0708E,50.033,19022007,0:47:10,25.980,-79.659,366.20,-9.00,1020.07,1015.50,25.03,25.18,36.333,2.323,106.394,30.676,1020.072,63.200,22.900,304.000,18.015,358.53,2,-9.00,9,-9.00,0.12,14.61,328.28,15.71,253.50
AOML_Explorer,Ex0708E,50.035,19022007,0:49:43,25.987,-79.643,366.60,-9.00,1019.68,1015.40,24.98,25.21,36.300,2.341,116.773,30.693,1019.679,63.100,22.900,289.000,16.985,359.79,2,-9.00,9,-9.00,0.13,16.76,313.77,15.75,256.85
AOML_Explorer,Ex0708E,50.036,19022007,0:52:16,25.995,-79.627,366.31,-9.00,1020.27,1014.90,24.92,25.21,36.330,2.278,105.971,30.706,1020.268,63.200,22.900,302.000,16.985,360.85,2,-9.00,9,-9.00,0.13,14.30,323.84,16.28,257.77
AOML_Explorer,Ex0708E,50.038,19022007,0:54:49,26.002,-79.611,366.74,-9.00,1019.95,1014.50,24.97,25.17,36.336,2.269,105.852,30.720,1019.947,62.900,22.800,303.000,20.073,359.73,2,-9.00,9,-9.00,0.12,16.63,331.35,16.05,253.03
AOML_Explorer,Ex0708E,50.040,19022007,0:57:22,26.009,-79.595,366.35,-9.00,1019.87,1015.60,24.94,25.10,36.351,2.281,109.528,30.734,1019.871,64.900,22.800,300.000,15.956,358.71,2,-9.00,9,-9.00,0.12,14.22,320.07,15.91,251.24
AOML_Explorer,Ex0708E,50.042,19022007,0:59:55,26.016,-79.579,366.31,-9.00,1020.05,1015.80,24.90,25.05,36.354,2.318,105.858,30.748,1020.045,64.100,22.700,312.000,16.470,358.67,2,-9.00,9,-9.00,0.12,11.94,332.49,15.92,250.61
AOML_Explorer,Ex0708E,50.057,19022007,1:21:40,26.077,-79.441,365.63,-9.00,1019.51,1014.80,24.79,24.88,36.427,2.276,106.108,30.887,1019.509,64.200,22.300,305.000,19.559,357.02,2,-9.00,9,-9.00,0.17,16.23,332.26,16.46,240.65
AOML_Explorer,Ex0708E,50.058,19022007,1:24:13,26.084,-79.426,366.36,-9.00,1019.98,1015.60,24.67,24.91,36.422,2.295,106.287,30.891,1019.977,64.800,22.300,307.000,19.559,360.15,2,-9.00,9,-9.00,0.15,15.62,335.68,16.6,273.87
AOML_Explorer,Ex0708E,50.060,19022007,1:26:46,26.090,-79.410,367.49,-9.00,1019.47,1015.00,24.68,24.92,36.402,2.246,106.337,30.894,1019.474,64.500,22.100,304.000,21.103,361.07,2,-9.00,9,-9.00,0.16,17.76,334.57,16.35,264.48
AOML_Explorer,Ex0708E,50.062,19022007,1:29:19,26.097,-79.394,368.38,-9.00,1019.90,1015.10,24.69,24.93,36.405,2.244,106.512,30.900,1019.899,65.000,22.200,304.000,18.529,362.17,2,-9.00,9,-9.00,0.15,15.71,329.68,16.34,259.29
AOML_Explorer,Ex0708E,50.064,19022007,1:31:52,26.104,-79.378,367.52,-9.00,1020.07,1015.50,24.70,24.94,36.425,2.278,107.099,30.904,1020.069,65.100,22.300,301.000,18.529,361.37,2,-9.00,9,-9.00,0.14,16.26,327.19,16.37,252.46
AOML_Explorer,Ex0708E,50.066,19022007,1:34:25,26.110,-79.362,368.13,-9.00,1019.97,1014.70,24.71,24.85,36.447,2.232,106.201,30.909,1019.974,65.700,22.300,302.000,20.073,360.32,2,-9.00,9,-9.00,0.17,17.33,331.58,16.38,250.29
AOML_Explorer,Ex0708E,50.067,19022007,1:36:58,26.117,-79.347,369.56,-9.00,1020.16,1016.20,24.69,24.91,36.386,2.257,102.809,30.915,1020.160,65.300,22.200,309.000,16.985,363.09,2,-9.00,9,-9.00,0.17,13.48,330.66,16.3,250.81
AOML_Explorer,Ex0708E,50.069,19022007,1:39:31,26.124,-79.331,368.03,-9.00,1019.97,1015.80,24.65,24.98,36.362,2.267,106.412,30.921,1019.970,66.100,22.000,308.000,20.073,363.02,2,-9.00,9,-9.00,0.15,16.26,337.60,16.26,248.96
AOML_Explorer,Ex0708E,50.071,19022007,1:42:04,26.130,-79.315,367.83,-9.00,1020.02,1015.70,24.72,25.02,36.365,2.272,106.037,30.925,1020.019,65.800,22.200,304.000,20.073,362.49,2,-9.00,9,-9.00,0.14,17.14,332.64,16.35,245.11
AOML_Explorer,Ex0708E,50.073,19022007,1:44:37,26.136,-79.299,367.58,-9.00,1019.82,1015.00,24.76,25.03,36.356,2.256,124.158,30.933,1019.818,66.400,22.100,305.000,22.132,361.62,2,-9.00,9,-9.00,0.14,18.82,337.24,16.32,243.23
AOML_Explorer,Ex0708E,50.074,19022007,1:47:10,26.143,-79.283,368.63,-9.00,1020.23,1015.50,24.78,25.06,36.347,2.273,106.731,30.939,1020.228,67.500,22.200,304.000,18.015,362.88,2,-9.00,9,-9.00,0.13,15.58,329.63,16.47,242.64
AOML_Explorer,Ex0708E,50.076,19022007,1:49:43,26.149,-79.267,367.52,-9.00,1020.16,1015.50,24.80,25.07,36.369,2.288,106.862,30.943,1020.159,67.300,22.200,311.000,19.044,361.63,2,-9.00,9,-9.00,0.12,15.12,337.87,16.17,241.95
AOML_Explorer,Ex0708E,50.078,19022007,1:52:16,26.155,-79.251,367.24,-9.00,1020.30,1016.10,24.83,25.01,36.386,2.306,106.502,30.947,1020.304,67.900,22.300,310.000,19.559,360.20,2,-9.00,9,-9.00,0.12,15.75,338.24,16.17,242.25
AOML_Explorer,Ex0708E,50.080,19022007,1:54:49,26.161,-79.234,367.32,-9.00,1020.43,1016.30,24.81,24.89,36.390,2.300,106.798,30.952,1020.432,68.200,22.400,311.000,19.044,358.90,2,-9.00,9,-9.00,0.12,15.26,337.57,16.11,242.88
AOML_Explorer,Ex0708E,50.082,19022007,1:57:22,26.167,-79.218,365.60,-9.00,1020.24,1015.70,24.73,24.72,36.438,2.268,106.287,30.953,1020.238,68.000,22.400,308.000,19.044,355.76,2,-9.00,9,-9.00,0.12,15.87,334.41,16.12,242.77
AOML_Explorer,Ex0708E,50.083,19022007,1:59:55,26.173,-79.202,364.38,-9.00,1020.21,1016.40,24.62,24.60,36.504,2.288,106.927,30.956,1020.211,67.900,22.400,324.000,19.559,354.44,2,-9.00,9,-9.00,0.11,13.03,353.32,16.16,240.03
AOML_Explorer,Ex0708E,50.098,19022007,2:21:40,26.197,-79.056,355.17,-9.00,1021.16,1016.60,24.10,24.25,36.651,2.271,106.359,30.999,1021.156,92.800,23.100,297.000,14.926,348.53,2,-9.00,9,-9.00,0.08,14.86,339.58,15.98,242.72
AOML_Explorer,Ex0708E,50.100,19022007,2:24:13,26.196,-79.038,355.26,-9.00,1020.88,1017.00,24.08,24.13,36.662,2.278,107.109,30.995,1020.880,93.300,23.200,306.000,14.926,347.21,2,-9.00,9,-9.00,0.09,13.20,345.85,15.84,242.98
AOML_Explorer,Ex0708E,50.102,19022007,2:26:46,26.195,-79.020,355.00,-9.00,1021.14,1016.90,24.02,24.08,36.648,2.280,131.883,30.991,1021.140,93.000,23.400,302.000,14.926,347.24,2,-9.00,9,-9.00,0.09,13.83,342.99,15.93,243.11
AOML_Explorer,Ex0708E,50.104,19022007,2:29:19,26.194,-79.002,353.96,-9.00,1021.32,1017.20,23.94,24.06,36.661,2.246,106.355,30.960,1021.320,92.500,23.300,303.000,14.926,347.18,2,-9.00,9,-9.00,0.09,13.80,342.91,15.86,242.67
AOML_Explorer,Ex0708E,50.105,19022007,2:31:52,26.193,-78.983,353.25,-9.00,1021.17,1017.40,23.90,24.05,36.671,2.299,106.890,30.943,1021.165,92.000,23.400,305.000,12.868,347.00,2,-9.00,9,-9.00,0.08,11.88,337.17,15.89,241.92
AOML_Explorer,Ex0708E,50.107,19022007,2:34:25,26.192,-78.965,353.44,-9.00,1021.23,1017.20,23.90,24.02,36.673,2.279,107.098,30.931,1021.226,92.400,23.500,305.000,12.868,346.74,2,-9.00,9,-9.00,0.08,12.05,336.90,15.94,242.38
AOML_Explorer,Ex0708E,50.109,19022007,2:36:58,26.191,-78.947,353.81,-9.00,1020.94,1016.60,23.88,24.03,36.666,2.264,106.710,30.927,1020.944,98.100,23.500,296.000,13.382,347.38,2,-9.00,9,-9.00,0.08,14.09,339.00,16.06,241.98
AOML_Explorer,Ex0708E,50.111,19022007,2:39:31,26.189,-78.928,353.57,-9.00,1020.97,1016.70,23.86,24.03,36.665,2.300,105.692,30.926,1020.968,97.900,23.600,304.000,15.441,347.33,2,-9.00,9,-9.00,0.08,13.78,350.69,16.06,241.73
AOML_Explorer,Ex0708E,50.113,19022007,2:42:04,26.187,-78.910,353.77,-9.00,1020.99,1016.70,23.86,24.01,36.668,2.253,106.280,30.924,1020.991,97.700,23.400,302.000,15.441,347.37,2,-9.00,9,-9.00,0.08,14.15,349.42,16.12,241.04
AOML_Explorer,Ex0708E,50.114,19022007,2:44:37,26.185,-78.892,353.66,-9.00,1021.12,1016.80,23.85,24.04,36.656,2.248,106.196,30.924,1021.115,95.900,23.600,297.000,14.412,347.76,2,-9.00,9,-9.00,0.09,14.28,341.40,15.9,240.91
AOML_Explorer,Ex0708E,50.116,19022007,2:47:10,26.183,-78.874,353.49,-9.00,1021.19,1017.40,23.85,24.06,36.671,2.274,105.964,30.924,1021.185,96.800,23.300,291.000,11.323,347.95,2,-9.00,9,-9.00,0.08,13.51,329.11,16.05,240.56
AOML_Explorer,Ex0708E,50.118,19022007,2:49:43,26.181,-78.856,353.80,-9.00,1021.14,1017.00,23.88,24.07,36.670,2.301,107.062,30.922,1021.140,96.300,23.200,293.000,11.323,348.07,2,-9.00,9,-9.00,0.08,13.07,329.91,16.26,239.63
AOML_Explorer,Ex0708E,50.120,19022007,2:52:16,26.179,-78.838,353.80,-9.00,1021.39,1016.60,23.89,24.07,36.666,2.272,106.046,30.923,1021.393,96.100,23.100,302.000,15.956,347.92,2,-9.00,9,-9.00,0.08,14.28,350.60,16.08,238.46
AOML_Explorer,Ex0708E,50.121,19022007,2:54:49,26.177,-78.820,353.57,-9.00,1021.25,1017.60,23.89,24.08,36.666,2.268,106.452,30.921,1021.250,97.100,23.000,301.000,12.353,347.73,2,-9.00,9,-9.00,0.08,12.19,338.85,15.92,238.58
AOML_Explorer,Ex0708E,50.123,19022007,2:57:22,26.175,-78.802,353.73,-9.00,1021.44,1017.50,23.89,24.08,36.668,2.297,106.090,30.921,1021.436,98.600,22.900,303.000,12.353,347.95,2,-9.00,9,-9.00,0.08,11.75,341.91,16.02,238.21
AOML_Explorer,Ex0708E,50.125,19022007,2:59:55,26.173,-78.784,353.41,-9.00,1021.23,1017.10,23.91,24.06,36.676,2.306,106.669,30.920,1021.233,99.800,22.900,300.000,13.897,347.02,2,-9.00,9,-9.00,0.08,13.08,347.41,16.19,238.07
AOML_Explorer,Ex0708E,50.140,19022007,3:21:40,26.136,-78.638,351.91,-9.00,1021.53,1017.90,23.92,24.10,36.634,2.278,107.674,30.953,1021.532,106.300,22.600,294.000,10.294,346.01,2,-9.00,9,-9.00,0.08,12.29,337.19,15.76,234.77
AOML_Explorer,Ex0708E,50.142,19022007,3:24:13,26.131,-78.621,352.34,-9.00,1021.39,1017.60,23.91,24.12,36.654,2.272,106.722,30.944,1021.386,106.000,22.800,295.000,12.868,346.81,2,-9.00,9,-9.00,0.07,13.57,346.61,15.66,234.25
AOML_Explorer,Ex0708E,50.144,19022007,3:26:46,26.127,-78.604,352.43,-9.00,1021.36,1017.30,23.93,24.08,36.667,2.263,107.297,30.942,1021.362,104.800,22.900,303.000,16.470,346.10,2,-9.00,9,-9.00,0.08,14.46,1.78,15.59,233.65
AOML_Explorer,Ex0708E,50.145,19022007,3:29:19,26.123,-78.587,353.80,-9.00,1021.49,1017.60,23.93,24.02,36.678,2.278,107.306,30.938,1021.487,105.300,23.000,303.000,14.412,346.66,2,-9.00,9,-9.00,0.08,13.17,355.56,15.52,233.74
AOML_Explorer,Ex0708E,50.147,19022007,3:31:52,26.119,-78.569,353.63,-9.00,1021.14,1017.50,23.89,24.01,36.692,2.247,106.845,30.932,1021.135,105.200,22.900,302.000,14.926,346.82,2,-9.00,9,-9.00,0.08,13.83,356.08,15.46,233.88
AOML_Explorer,Ex0708E,50.149,19022007,3:34:25,26.114,-78.552,352.81,-9.00,1021.48,1018.10,23.85,24.04,36.677,2.249,107.635,30.928,1021.477,105.100,22.700,306.000,13.382,347.14,2,-9.00,9,-9.00,0.07,11.97,354.01,15.44,234.79
AOML_Explorer,Ex0708E,50.151,19022007,3:36:58,26.110,-78.535,350.02,-9.00,1021.56,1017.70,23.84,24.06,36.675,2.282,107.075,30.924,1021.560,105.900,22.800,295.000,13.382,344.84,2,-9.00,9,-9.00,0.08,14.16,347.40,15.66,234.91
AOML_Explorer,Ex0708E,50.152,19022007,3:39:31,26.106,-78.518,346.29,-9.00,1021.89,1018.70,23.88,24.06,36.647,2.311,106.975,30.923,1021.889,105.900,22.800,303.000,11.323,340.77,2,-9.00,9,-9.00,0.07,11.42,344.43,15.41,235.07
AOML_Explorer,Ex0708E,50.154,19022007,3:42:04,26.101,-78.501,345.57,-9.00,1021.80,1017.90,23.88,24.07,36.646,2.282,107.221,30.922,1021.802,106.900,22.800,304.000,13.382,340.04,2,-9.00,9,-9.00,0.07,12.48,353.93,15.46,234.99
AOML_Explorer,Ex0708E,50.156,19022007,3:44:37,26.097,-78.484,345.60,-9.00,1021.82,1018.40,23.89,24.07,36.649,2.287,106.764,30.919,1021.825,107.600,23.000,296.000,13.382,339.91,2,-9.00,9,-9.00,0.07,13.77,350.09,15.46,234.99
AOML_Explorer,Ex0708E,50.158,19022007,3:47:10,26.091,-78.467,346.12,-9.00,1021.86,1018.70,23.90,24.09,36.640,2.241,107.196,30.919,1021.863,110.900,23.100,304.000,10.294,340.59,2,-9.00,9,-9.00,0.07,10.93,344.17,15.48,234.36
AOML_Explorer,Ex0708E,50.160,19022007,3:49:43,26.085,-78.450,346.61,-9.00,1022.01,1019.20,23.91,24.16,36.637,2.283,107.163,30.917,1022.007,110.200,23.200,306.000,8.235,342.14,2,-9.00,9,-9.00,0.07,10.02,333.15,15.47,234.19
AOML_Explorer,Ex0708E,50.161,19022007,3:52:16,26.079,-78.433,346.69,-9.00,1021.71,1017.90,23.94,24.16,36.645,2.269,106.997,30.916,1021.712,111.000,23.200,292.000,12.353,341.68,2,-9.00,9,-9.00,0.07,14.04,347.09,15.58,234.19
AOML_Explorer,Ex0708E,50.163,19022007,3:54:49,26.074,-78.416,346.77,-9.00,1021.80,1018.00,23.99,24.16,36.636,2.288,107.245,30.915,1021.804,108.800,23.400,301.000,11.838,340.97,2,-9.00,9,-9.00,0.07,12.30,347.08,15.68,233.99
AOML_Explorer,Ex0708E,50.165,19022007,3:57:22,26.069,-78.399,347.03,-9.00,1021.87,1018.40,23.98,24.16,36.621,2.293,106.995,30.913,1021.872,108.000,23.500,298.000,10.294,341.37,2,-9.00,9,-9.00,0.07,11.91,338.78,15.69,233.67
AOML_Explorer,Ex0708E,50.167,19022007,3:59:55,26.064,-78.381,347.40,-9.00,1021.95,1018.60,23.98,24.17,36.629,2.291,106.826,30.911,1021.953,107.500,23.500,294.000,10.809,341.90,2,-9.00,9,-9.00,0.08,12.75,338.99,15.55,233.22
AOML_Explorer,Ex0708E,50.182,19022007,4:21:40,26.028,-78.231,345.54,-9.00,1022.36,1017.90,23.92,24.06,36.653,2.248,107.079,30.940,1022.359,104.600,23.100,307.000,14.926,339.53,2,-9.00,9,-9.00,0.07,12.71,359.21,15.55,232.10
AOML_Explorer,Ex0708E,50.183,19022007,4:24:13,26.024,-78.213,344.56,-9.00,1022.15,1019.10,23.90,24.06,36.666,2.293,107.074,30.936,1022.150,102.900,22.800,314.000,9.265,338.81,2,-9.00,9,-9.00,0.07,8.59,334.34,15.47,232.03
AOML_Explorer,Ex0708E,50.185,19022007,4:26:46,26.020,-78.196,344.91,-9.00,1022.08,1018.90,23.88,24.02,36.677,2.257,107.235,30.930,1022.079,103.200,23.000,306.000,11.838,338.82,2,-9.00,9,-9.00,0.07,11.05,345.38,15.6,231.64
AOML_Explorer,Ex0708E,50.187,19022007,4:29:19,26.016,-78.178,345.57,-9.00,1021.78,1017.40,23.87,24.09,36.685,2.263,106.494,30.926,1021.785,104.200,22.800,298.000,16.470,340.44,2,-9.00,9,-9.00,0.07,15.49,357.18,15.88,230.19
AOML_Explorer,Ex0708E,50.189,19022007,4:31:52,26.012,-78.161,347.70,-9.00,1021.97,1018.30,23.89,24.12,36.674,2.263,106.819,30.919,1021.968,103.400,22.800,298.000,12.868,342.82,2,-9.00,9,-9.00,0.08,13.00,345.85,15.55,229.36
AOML_Explorer,Ex0708E,50.191,19022007,4:34:25,26.009,-78.143,351.09,-9.00,1022.16,1018.80,23.93,24.09,36.632,2.287,107.024,30.915,1022.160,102.900,22.700,305.000,11.323,345.19,2,-9.00,9,-9.00,0.08,10.80,343.23,15.59,230.34
AOML_Explorer,Ex0708E,50.192,19022007,4:36:58,26.005,-78.126,352.37,-9.00,1022.03,1019.00,23.92,24.08,36.612,2.227,106.969,30.913,1022.029,102.200,22.700,299.000,8.750,346.46,2,-9.00,9,-9.00,0.08,10.72,327.93,15.49,230.90
AOML_Explorer,Ex0708E,50.194,19022007,4:39:31,26.002,-78.108,351.91,-9.00,1022.01,1018.10,23.91,24.35,36.418,2.252,107.409,30.908,1022.006,101.900,22.600,287.000,12.868,349.87,2,-9.00,9,-9.00,0.08,14.66,339.10,15.78,230.80
AOML_Explorer,Ex0708E,50.196,19022007,4:42:04,25.998,-78.091,350.43,-9.00,1022.17,1018.50,24.02,24.53,36.397,2.274,107.614,30.907,1022.175,104.200,22.500,292.000,10.294,349.48,2,-9.00,9,-9.00,0.11,12.26,335.27,15.69,230.39
AOML_Explorer,Ex0708E,50.198,19022007,4:44:37,25.994,-78.074,350.80,-9.00,1022.16,1018.80,24.21,24.67,36.388,2.257,107.095,30.906,1022.159,104.800,22.600,290.000,9.265,349.02,2,-9.00,9,-9.00,0.10,12.21,330.44,15.67,229.53
AOML_Explorer,Ex0708E,50.199,19022007,4:47:10,25.990,-78.057,353.19,-9.00,1021.99,1018.00,24.39,24.75,36.371,2.280,107.375,30.907,1021.990,104.500,22.600,299.000,11.323,349.85,2,-9.00,9,-9.00,0.10,11.74,342.46,15.83,228.71
AOML_Explorer,Ex0708E,50.201,19022007,4:49:43,25.986,-78.039,354.95,-9.00,1022.00,1017.50,24.48,24.81,36.356,2.282,107.258,30.904,1022.003,104.700,22.700,297.000,11.838,351.09,2,-9.00,9,-9.00,0.10,12.52,343.14,15.85,228.76
AOML_Explorer,Ex0708E,50.203,19022007,4:52:16,25.982,-78.022,356.23,-9.00,1021.99,1018.50,24.54,24.82,36.352,2.275,107.094,30.904,1021.993,105.400,22.700,304.000,12.353,351.47,2,-9.00,9,-9.00,0.10,11.48,349.76,15.73,228.70
AOML_Explorer,Ex0708E,50.205,19022007,4:54:49,25.977,-78.005,356.69,-9.00,1021.80,1018.80,24.58,24.83,36.353,2.270,106.765,30.901,1021.796,105.200,22.600,292.000,10.809,351.54,2,-9.00,9,-9.00,0.10,12.70,337.73,15.76,228.36
AOML_Explorer,Ex0708E,50.207,19022007,4:57:22,25.973,-77.988,356.91,-9.00,1021.82,1018.80,24.60,24.83,36.353,2.299,107.192,30.901,1021.823,105.000,22.900,292.000,8.750,351.47,2,-9.00,9,-9.00,0.11,11.92,328.32,15.82,228.44
AOML_Explorer,Ex0708E,50.208,19022007,4:59:55,25.969,-77.970,357.00,-9.00,1021.69,1018.30,24.60,24.85,36.349,2.249,107.311,30.898,1021.685,104.800,23.100,299.000,12.353,351.58,2,-9.00,9,-9.00,0.11,12.52,345.55,15.95,228.29
AOML_Explorer,Ex0708E,50.223,19022007,5:21:40,25.932,-77.823,357.97,-9.00,1021.73,1018.60,24.66,24.85,36.364,2.266,107.234,30.930,1021.732,107.800,22.900,305.000,9.779,351.76,2,-9.00,9,-9.00,0.10,10.34,339.76,16.13,228.30
AOML_Explorer,Ex0708E,50.225,19022007,5:24:13,25.927,-77.806,357.69,-9.00,1021.73,1018.50,24.64,24.81,36.385,2.308,107.985,30.928,1021.735,107.200,23.200,290.000,10.294,351.36,2,-9.00,9,-9.00,0.10,13.03,335.64,16.01,228.07
AOML_Explorer,Ex0708E,50.227,19022007,5:26:46,25.922,-77.789,357.87,-9.00,1021.70,1018.80,24.63,24.80,36.380,2.235,107.192,30.922,1021.699,107.100,23.200,287.000,9.265,351.40,2,-9.00,9,-9.00,0.10,13.04,330.47,15.99,228.57
AOML_Explorer,Ex0708E,50.229,19022007,5:29:19,25.917,-77.771,357.66,-9.00,1021.69,1018.20,24.60,24.75,36.390,2.313,107.056,30.918,1021.695,102.600,23.100,281.000,9.779,351.07,2,-9.00,9,-9.00,0.10,14.32,325.14,16.25,228.74
AOML_Explorer,Ex0708E,50.230,19022007,5:31:52,25.915,-77.753,357.13,-9.00,1021.59,1018.20,24.56,24.69,36.409,2.309,106.894,30.913,1021.586,97.800,23.100,314.000,12.353,350.01,2,-9.00,9,-9.00,0.10,9.96,345.98,16.18,229.10
AOML_Explorer,Ex0708E,50.232,19022007,5:34:25,25.912,-77.736,356.49,-9.00,1021.53,1018.40,24.52,24.60,36.440,2.252,107.191,30.908,1021.527,98.000,23.200,310.000,12.868,348.91,2,-9.00,9,-9.00,0.10,11.18,345.63,16.08,229.23
AOML_Explorer,Ex0708E,50.234,19022007,5:36:58,25.911,-77.718,355.90,-9.00,1021.38,1017.60,24.46,24.53,36.465,2.287,106.803,30.904,1021.382,95.600,23.200,298.000,12.353,348.13,2,-9.00,9,-9.00,0.09,13.02,334.74,16.31,229.49
AOML_Explorer,Ex0708E,50.236,19022007,5:39:31,25.909,-77.700,355.05,-9.00,1021.57,1018.20,24.38,24.37,36.526,2.284,106.601,30.898,1021.574,95.300,23.100,298.000,13.382,346.23,2,-9.00,9,-9.00,0.10,13.50,338.53,16.24,229.85
AOML_Explorer,Ex0708E,50.238,19022007,5:42:04,25.907,-77.682,353.85,-9.00,1021.49,1017.40,24.27,24.28,36.563,2.296,107.209,30.894,1021.493,95.000,23.000,299.000,13.382,345.24,2,-9.00,9,-9.00,0.09,13.27,339.11,16.53,230.29
AOML_Explorer,Ex0708E,50.239,19022007,5:44:37,25.906,-77.664,352.07,-9.00,1021.57,1018.40,24.17,24.20,36.592,2.290,107.348,30.891,1021.573,95.100,22.800,297.000,10.809,343.96,2,-9.00,9,-9.00,0.08,12.11,328.99,16.29,230.37
AOML_Explorer,Ex0708E,50.241,19022007,5:47:10,25.904,-77.646,350.56,-9.00,1021.41,1017.80,24.08,24.13,36.610,2.274,106.919,30.884,1021.414,97.700,22.800,297.000,12.868,342.82,2,-9.00,9,-9.00,0.08,13.35,339.04,16.33,230.32
AOML_Explorer,Ex0708E,50.243,19022007,5:49:43,25.901,-77.629,349.61,-9.00,1021.50,1018.20,24.01,24.07,36.627,2.280,107.394,30.883,1021.502,101.900,22.800,302.000,8.750,342.14,2,-9.00,9,-9.00,0.08,10.53,327.78,16.39,230.57
AOML_Explorer,Ex0708E,50.245,19022007,5:52:16,25.898,-77.611,348.94,-9.00,1021.54,1018.20,23.95,24.03,36.640,2.273,107.862,30.874,1021.542,103.300,22.600,301.000,11.323,341.67,2,-9.00,9,-9.00,0.08,11.45,342.05,16.33,230.33
AOML_Explorer,Ex0708E,50.246,19022007,5:54:49,25.893,-77.594,348.52,-9.00,1021.52,1018.50,23.90,24.02,36.642,2.265,107.008,30.870,1021.517,107.700,22.700,313.000,9.779,341.93,2,-9.00,9,-9.00,0.08,8.99,342.30,16.28,230.42
AOML_Explorer,Ex0708E,50.248,19022007,5:57:22,25.888,-77.578,348.12,-9.00,1021.48,1018.50,23.87,24.02,36.649,2.266,106.944,30.869,1021.479,109.500,22.700,302.000,10.809,341.97,2,-9.00,9,-9.00,0.08,11.19,345.86,16.32,230.60
AOML_Explorer,Ex0708E,50.250,19022007,5:59:55,25.882,-77.561,347.61,-9.00,1021.27,1017.90,23.87,24.02,36.644,2.288,106.820,30.863,1021.273,109.200,22.800,296.000,11.838,341.43,2,-9.00,9,-9.00,0.08,12.81,346.68,16.43,230.67
AOML_Explorer,Ex0708E,50.265,19022007,6:21:40,25.835,-77.417,346.90,-9.00,1021.21,1017.50,23.82,23.99,36.657,2.246,107.507,30.905,1021.213,110.500,23.400,308.000,14.926,341.00,2,-9.00,9,-9.00,0.09,12.60,5.02,16.11,230.42
AOML_Explorer,Ex0708E,50.267,19022007,6:24:13,25.829,-77.400,347.56,-9.00,1021.05,1017.00,23.82,24.00,36.662,2.252,107.517,30.907,1021.054,110.800,23.200,301.000,15.441,341.72,2,-9.00,9,-9.00,0.09,14.43,1.75,16,230.29
AOML_Explorer,Ex0708E,50.269,19022007,6:26:46,25.823,-77.383,348.79,-9.00,1021.15,1017.50,23.84,23.99,36.671,2.236,107.685,30.905,1021.155,111.400,23.300,311.000,13.897,342.50,2,-9.00,9,-9.00,0.09,11.41,4.21,16.1,230.15
AOML_Explorer,Ex0708E,50.270,19022007,6:29:19,25.817,-77.366,349.52,-9.00,1021.18,1018.00,23.83,23.97,36.681,2.274,107.220,30.904,1021.179,111.000,23.300,303.000,12.868,343.05,2,-9.00,9,-9.00,0.09,12.40,354.50,16.16,230.41
AOML_Explorer,Ex0708E,50.272,19022007,6:31:52,25.811,-77.349,349.73,-9.00,1021.35,1017.00,23.82,23.97,36.685,2.241,107.937,30.897,1021.348,110.600,23.500,289.000,13.897,343.47,2,-9.00,9,-9.00,0.09,15.57,349.40,16.26,230.12
AOML_Explorer,Ex0708E,50.274,19022007,6:34:25,25.805,-77.331,349.59,-9.00,1021.24,1017.90,23.81,24.01,36.695,2.243,107.550,30.895,1021.235,110.500,23.500,286.000,11.323,343.99,2,-9.00,9,-9.00,0.09,14.56,339.83,16.01,230.08
AOML_Explorer,Ex0708E,50.276,19022007,6:36:58,25.799,-77.314,350.14,-9.00,1021.22,1017.90,23.84,23.99,36.711,2.285,107.578,30.894,1021.224,110.900,23.400,304.000,12.353,343.94,2,-9.00,9,-9.00,0.08,12.01,352.69,15.92,230.19
AOML_Explorer,Ex0708E,50.277,19022007,6:39:31,25.793,-77.297,350.29,-9.00,1021.35,1017.70,23.84,23.94,36.731,2.265,107.049,30.891,1021.353,111.300,23.600,292.000,11.838,343.31,2,-9.00,9,-9.00,0.08,13.94,344.74,15.98,229.91
AOML_Explorer,Ex0708E,50.279,19022007,6:42:04,25.788,-77.280,350.15,-9.00,1021.37,1018.00,23.82,23.92,36.726,2.315,107.545,30.886,1021.374,107.900,23.300,306.000,11.323,343.29,2,-9.00,9,-9.00,0.08,11.24,346.08,16.03,229.37
AOML_Explorer,Ex0708E,50.281,19022007,6:44:37,25.783,-77.262,349.99,-9.00,1021.20,1017.90,23.79,23.94,36.721,2.265,106.845,30.886,1021.203,102.900,23.200,309.000,11.838,343.67,2,-9.00,9,-9.00,0.08,10.94,345.03,15.96,228.83
AOML_Explorer,Ex0708E,50.283,19022007,6:47:10,25.780,-77.245,350.36,-9.00,1021.23,1018.00,23.79,23.88,36.730,2.262,107.416,30.887,1021.233,98.000,23.200,301.000,12.353,343.28,2,-9.00,9,-9.00,0.09,12.51,338.64,15.95,229.00
AOML_Explorer,Ex0708E,50.285,19022007,6:49:43,25.778,-77.227,350.79,-9.00,1021.27,1017.80,23.77,23.82,36.726,2.293,107.235,30.885,1021.273,97.400,23.200,298.000,12.353,343.12,2,-9.00,9,-9.00,0.09,12.96,336.72,15.89,229.58
AOML_Explorer,Ex0708E,50.286,19022007,6:52:16,25.776,-77.209,349.98,-9.00,1021.31,1018.00,23.71,23.80,36.723,2.245,107.414,30.887,1021.313,98.900,23.300,301.000,10.294,343.04,2,-9.00,9,-9.00,0.10,11.37,331.11,16.06,229.55
AOML_Explorer,Ex0708E,50.288,19022007,6:54:49,25.773,-77.191,349.06,-9.00,1021.44,1018.20,23.67,23.75,36.739,2.284,107.429,30.888,1021.442,99.100,23.100,302.000,9.779,342.07,2,-9.00,9,-9.00,0.09,10.96,329.59,16.08,229.34
AOML_Explorer,Ex0708E,50.290,19022007,6:57:22,25.771,-77.173,348.39,-9.00,1021.31,1018.10,23.66,23.71,36.733,2.287,107.601,30.888,1021.307,97.500,23.100,302.000,11.838,340.86,2,-9.00,9,-9.00,0.09,11.76,337.57,16.11,229.59
AOML_Explorer,Ex0708E,50.292,19022007,6:59:55,25.768,-77.155,348.00,-9.00,1021.15,1017.90,23.60,23.66,36.734,2.282,107.204,30.887,1021.153,98.400,23.200,300.000,11.323,340.65,2,-9.00,9,-9.00,0.07,11.94,335.13,16.03,230.60
AOML_Explorer,Ex0708E,50.307,19022007,7:21:40,25.739,-77.004,341.33,-9.00,1021.04,1018.60,23.60,23.69,36.750,2.278,107.681,30.951,1021.043,97.500,23.000,319.000,6.691,334.55,2,-9.00,9,-9.00,0.06,8.39,311.05,15.98,231.53
AOML_Explorer,Ex0708E,50.308,19022007,7:24:13,25.737,-76.986,343.14,-9.00,1020.97,1018.40,23.60,23.63,36.718,2.242,107.996,30.955,1020.969,97.800,23.100,291.000,8.235,335.49,2,-9.00,9,-9.00,0.06,12.17,317.82,16.18,232.07
AOML_Explorer,Ex0708E,50.310,19022007,7:26:46,25.734,-76.968,342.04,-9.00,1020.88,1017.50,23.53,23.61,36.728,2.276,107.396,30.953,1020.885,97.700,23.300,305.000,12.353,335.09,2,-9.00,9,-9.00,0.06,11.80,340.36,16.51,232.06